This is the latest recevied weather packets stored in our database for station/object W6MAF. If no packets are shown the sender has not sent any weather packets the latest 10 day(s).
| Time | Temp. | Humidity | Pressure | Rain* | Wind** | Luminosity | Snow |
|---|---|---|---|---|---|---|---|
| 1777863475 | 11.11° C | 66% | - | 0 mm | 6.71 m/s, 183° | - | - |
| 1777863177 | 11.11° C | 66% | - | 0 mm | 6.26 m/s, 180° | - | - |
| 1777862881 | 11.11° C | 66% | - | 0 mm | 4.92 m/s, 169° | - | - |
| 1777862579 | 11.11° C | 66% | - | 0 mm | 5.81 m/s, 190° | - | - |
| 1777862281 | 11.11° C | 65% | - | 0 mm | 4.47 m/s, 188° | - | - |
| 1777861983 | 11.11° C | 65% | - | 0 mm | 4.92 m/s, 184° | - | - |
| 1777861743 | 11.11° C | 64% | - | 0 mm | 5.81 m/s, 197° | - | - |
| 1777861686 | 11.11° C | 64% | - | 0 mm | 5.81 m/s, 197° | - | - |
| 1777861388 | 11.67° C | 64% | - | 0 mm | 4.47 m/s, 174° | - | - |
| 1777861090 | 11.67° C | 64% | - | 0 mm | 6.71 m/s, 169° | - | - |
| 1777860789 | 11.67° C | 63% | - | 0 mm | 5.36 m/s, 190° | - | - |
| 1777860492 | 11.67° C | 62% | - | 0 mm | 7.15 m/s, 205° | - | - |
| 1777860194 | 12.22° C | 61% | - | 0 mm | 6.71 m/s, 181° | - | - |
| 1777859896 | 12.22° C | 58% | - | 0 mm | 4.47 m/s, 165° | - | - |
| 1777859599 | 12.78° C | 56% | - | 0 mm | 5.81 m/s, 143° | - | - |
| 1777859301 | 12.78° C | 55% | - | 0 mm | 5.36 m/s, 139° | - | - |
| 1777859000 | 13.33° C | 54% | - | 0 mm | 4.47 m/s, 163° | - | - |
| 1777858702 | 13.33° C | 52% | - | 0 mm | 5.81 m/s, 187° | - | - |
| 1777858405 | 13.33° C | 52% | - | 0 mm | 4.02 m/s, 172° | - | - |
| 1777858107 | 13.89° C | 51% | - | 0 mm | 2.68 m/s, 179° | - | - |
| 1777857809 | 13.89° C | 51% | - | 0 mm | 5.36 m/s, 180° | - | - |
| 1777857512 | 13.89° C | 50% | - | 0 mm | 2.24 m/s, 214° | - | - |
| 1777857211 | 13.89° C | 49% | - | 0 mm | 3.58 m/s, 180° | - | - |
| 1777856913 | 13.89° C | 48% | - | 0 mm | 4.02 m/s, 197° | - | - |
| 1777856616 | 13.89° C | 47% | - | 0 mm | 8.05 m/s, 194° | - | - |
* Rain latest hour (hover to see other rain measurements)
** Current wind speed in m/s (hover to see current wind gust speed)